This is the latest recevied weather packets stored in our database for station/object DO7ZT-13. If no packets are shown the sender has not sent any weather packets the latest 10 day(s).
| Time | Temp. | Humidity | Pressure | Rain* | Wind** | Luminosity | Snow |
|---|---|---|---|---|---|---|---|
| 1777407622 | 7.22° C | 41% | 1024.4 hPa | 0 mm | 0.89 m/s, 96° | - | - |
| 1777407309 | 7.78° C | 39% | 1024.4 hPa | 0 mm | 1.34 m/s, 78° | - | - |
| 1777407022 | 7.78° C | 39% | 1024.4 hPa | 0 mm | 1.34 m/s, 60° | - | - |
| 1777406710 | 7.78° C | 36% | 1024.4 hPa | 0 mm | 1.34 m/s, 72° | - | - |
| 1777406422 | 7.78° C | 38% | 1024.2 hPa | 0 mm | 0.89 m/s, 54° | - | - |
| 1777406109 | 7.78° C | 38% | 1024.2 hPa | 0 mm | 0.89 m/s, 78° | - | - |
| 1777405822 | 7.78° C | 39% | 1024.2 hPa | 0 mm | 0.89 m/s, 60° | - | - |
| 1777405510 | 7.78° C | 37% | 1024.1 hPa | 0 mm | 0.45 m/s, 78° | - | - |
| 1777405222 | 7.78° C | 38% | 1024.1 hPa | 0 mm | 1.34 m/s, 90° | - | - |
| 1777404909 | 7.78° C | 37% | 1024.1 hPa | 0 mm | 0.89 m/s, 66° | - | - |
| 1777404622 | 7.78° C | 38% | 1024 hPa | 0 mm | 0.45 m/s, 108° | - | - |
| 1777404309 | 7.78° C | 36% | 1024 hPa | 0 mm | 0.89 m/s, 66° | - | - |
| 1777404022 | 7.78° C | 37% | 1024 hPa | 0 mm | 1.34 m/s, 66° | - | - |
| 1777403709 | 7.78° C | 37% | 1024 hPa | 0 mm | 0.89 m/s, 90° | - | - |
| 1777403422 | 7.78° C | 36% | 1024 hPa | 0 mm | 0.45 m/s, 66° | - | - |
| 1777403110 | 7.78° C | 38% | 1024 hPa | 0 mm | 0.45 m/s, 60° | - | - |
| 1777402834 | 7.78° C | 39% | 1023.8 hPa | 0 mm | 0.45 m/s, 77° | - | - |
| 1777402522 | 7.78° C | 38% | 1023.8 hPa | 0 mm | 0.89 m/s, 66° | - | - |
| 1777402209 | 7.78° C | 38% | 1023.8 hPa | 0 mm | 0.45 m/s, 66° | - | - |
| 1777401922 | 7.78° C | 37% | 1023.6 hPa | 0 mm | 0.89 m/s, 66° | - | - |
| 1777401609 | 7.78° C | 37% | 1023.6 hPa | 0 mm | 0.45 m/s, 42° | - | - |
| 1777401322 | 8.89° C | 37% | 1023.6 hPa | 0 mm | 0.45 m/s, 30° | - | - |
| 1777401009 | 8.89° C | 36% | 1023.5 hPa | 0 mm | 0.45 m/s, 60° | - | - |
| 1777400722 | 8.89° C | 36% | 1023.5 hPa | 0 mm | 0.89 m/s, 78° | - | - |
| 1777400409 | 8.89° C | 35% | 1023.5 hPa | 0 mm | 0.45 m/s, 72° | - | - |
* Rain latest hour (hover to see other rain measurements)
** Current wind speed in m/s (hover to see current wind gust speed)